Find Starlink 33869

NORAD ID: 63790 Int'l Des: 2025-091 Owner: SPXS Country: US Constellation: starlink operational
LEOCIRCULAR

現在のビュー

3D地球を読み込み中...

About Starlink 33869

Starlink 33869 (NORAD 63790) is a starlink constellation satellite (v2 mini) launched May 2, 2025 by SPXS of US. It operates in LEO, CIRCULAR orbit with a mass of 575.00 kg.

Starlink 33869について

説明を読み込み中...

次回通過

Passes for default location (London). Set your location on the main map for personalized predictions.

高度履歴

Loading altitude history...

軌道要素

1 63790U 25091R 26171.33663388 .00012202 00000-0 45202-3 0 9992
2 63790 42.9976 192.5740 0000589 296.0350 64.0441 15.27591521 64556
Epoch: Jun 20, 2026 • Age: 10 hours

現在のステータス

高度 492.3 km
速度 7.62 km/s
衛星直下点 -33.84°S, 130.95°W
打ち上げ日 May 2, 2025
運用期間 1.1 years
タイプ internet

技術仕様

分類 Payload
質量 575.00 kg
乾燥質量 530.00 kg
総質量 575.00 kg
長さ 0.30 m
直径 4.10 m
スパン 29.00 m
形状 Box + pan
製造者 SPXS
バスタイプ Starlink V2MO
フェーズステータス In Orbit
所有者/国 SPXS/US

Most Searched